Weather observations for the past three days for
Canton, Cherokee County Airport
Imperial (Metric)
Date Time (edt) Wind (mph) Vis. (mi.) Weather Sky Cond. Temperature (ºF) Relative Humidity Wind Chill (°F) Heat Index (°F) Pressure Precipitation (in)
Air Dwpt 6 hour altimeter (in) sea level (mb) 1 hr 3 hr 6 hr
Max. Min.
24 10:15 Calm 10.00 Overcast OVC007 74.8 72.7 93% 30.25 0.0
24 09:55 Calm 10.00 Overcast OVC007 73 70.3 91% 30.25 0.0
24 09:35 Calm 10.00 Mostly Cloudy BKN003 72.3 70.3 94% 30.25 0.0
24 09:15 W 3 10.00 Overcast OVC003 71.6 70.9 98% 30.25 0.0
24 08:55 Calm 5.00 Fog/Mist SCT003 71.6 71.2 99% 30.25 0.0
24 08:35 W 3 7.00 Partly Cloudy SCT003 71.1 70.5 98% 30.24 0.0
24 08:15 Calm 5.00 Fog/Mist SCT003 71.1 70.5 98% 30.23 0.0
24 07:55 Calm 2.00 Fog/Mist SCT003 71.1 70.3 72.1 69.8 98% 30.23 0.0
24 07:35 Calm 10.00 Fair CLR 70.5 70 98% 30.22 0.0
24 07:15 Calm 10.00 Fair CLR 70.3 69.8 98% 30.22 0.0
24 06:55 Calm 3.50 Fog/Mist CLR 70.2 69.6 98% 30.21 0.0
24 06:35 NW 3 10.00 Fair CLR 70.2 69.8 99% 30.21 0.0
24 06:15 NW 5 10.00 Partly Cloudy SCT001 70.2 69.8 99% 30.21 0.0
24 05:55 NW 3 1.00 Fog/Mist BKN001 70 69.8 99% 30.2 0.0
24 05:35 N 3 0.25 Fog OVC001 70.2 70 99% 30.2 0.0
24 05:15 NW 3 10.00 Partly Cloudy SCT003 70.9 70.7 99% 30.21 0.0
24 04:55 Calm 2.00 Fog/Mist OVC003 70.5 70.3 99% 30.21 0.0
24 04:35 Calm 0.50 Fog OVC003 70.5 70.2 99% 30.21 0.0
24 04:15 Calm 0.75 Fog/Mist OVC003 70.9 70.5 99% 30.21 0.0
24 03:55 Calm 2.50 Fog/Mist SCT005 71.1 70.7 99% 30.2 0.0
24 03:35 Calm 10.00 Fair CLR 71.6 71.1 98% 30.19 0.0
24 03:15 Calm 3.00 Fog/Mist SCT007 71.2 70.9 99% 30.19 0.0
24 02:55 Calm 7.00 Fog/Mist BKN007 71.2 70.9 99% 30.19 0.0
24 02:35 Calm 10.00 Mostly Cloudy BKN007 71.8 71.1 98% 30.19 0.0
24 02:15 W 3 7.00 Fog/Mist OVC007 71.8 71.2 98% 30.2 0.0
24 01:55 Calm 7.00 Mostly Cloudy BKN007 72 71.6 72.7 71.4 99% 30.2 0.0 0.05
24 01:35 W 3 7.00 Overcast OVC009 72 71.6 99% 30.2 0.0
24 01:15 Calm 7.00 Fog/Mist OVC007 72 71.6 99% 30.2 0.0
24 00:55 Calm 7.00 Overcast OVC005 71.8 71.4 99% 30.2 0.0 0.01
24 00:35 NW 3 0.25 Fog OVC005 71.6 71.4 99% 30.19 0.0 0.01
24 00:15 N 3 3.00 Fog/Mist SCT002 BKN007 72 71.6 99% 30.19 0.0 0.01
23 23:55 Calm 1.00 Fog/Mist OVC002 71.6 71.2 99% 30.2 0.0
23 23:35 Calm 3.00 Fog/Mist BKN002 71.6 71.2 99% 30.2 0.0
23 23:15 Calm 1.75 Fog/Mist OVC002 71.8 71.4 99% 30.2 0.0
23 22:55 SE 3 0.50 Fog OVC002 72.1 71.8 99% 30.2 0.0 0.04
23 22:35 Calm 1.50 Light Rain Fog/Mist BKN002 BKN060 BKN110 72 71.6 99% 30.2 0.0
23 22:15 S 3 7.00 Light Rain Fog/Mist SCT060 SCT075 SCT090 71.8 71.2 98% 30.2 0.0
23 21:55 SW 3 5.00 Fog/Mist SCT070 SCT100 BKN120 71.6 71.2 99% 30.19 0.0 0.01
23 21:35 Calm 4.00 Fog/Mist BKN120 71.4 70.9 98% 30.19 0.0
23 21:15 Calm 10.00 Light Drizzle CLR 71.8 71.1 98% 30.19 0.0
23 20:55 Calm 7.00 Light Rain SCT075 SCT095 71.6 71.2 99% 30.18 0.0 0.03
23 20:35 Calm 3.00 Thunderstorm Light Rain in Vicinity Fog/Mist SCT005 SCT025 BKN095 72 71.6 99% 30.18 0.0 0.03
23 20:15 Calm 1.25 Light Rain Fog/Mist SCT002 BKN007 OVC055 72.3 72 99% 30.18 0.0 0.01
23 19:55 Calm 4.00 Light Rain Fog/Mist SCT050 SCT070 OVC090 72.5 71.2 87.8 72.5 96% 30.18 0.0 0.08 0.2
23 19:35 Calm 4.00 Rain Fog/Mist SCT050 BKN070 OVC080 73 71.8 96% 30.18 0.0 0.03
23 19:15 Calm 7.00 Thunderstorm Fog/Mist in Vicinity SCT050 BKN060 OVC090 72.9 72.1 98% 30.17 0.0
23 18:55 Calm 7.00 Thunderstorm Light Rain SCT034 BKN075 OVC085 73.2 72 96% 30.16 0.0 0.01
23 18:35 N 6 7.00 Thunderstorm Rain SCT034 BKN045 OVC095 73.4 71.6 94% 30.13 0.0
23 18:15 N 5 10.00 Thunderstorm Light Rain in Vicinity SCT010 BKN036 OVC110 73.8 71.2 92% 30.13 0.0
23 17:55 S 7 10.00 Thunderstorm SCT040 BKN048 BKN060 73.6 71.4 93% 30.14 0.0
23 17:35 NW 8 10.00 Thunderstorm in Vicinity SCT060 SCT070 73.9 71.2 91% 30.12 0.0
23 17:15 N 9 10.00 Thunderstorm in Vicinity SCT005 SCT046 74.5 71.8 91% 30.11 0.0
23 16:55 N 7 7.00 Thunderstorm Fog/Mist in Vicinity SCT005 BKN048 BKN060 75.4 73.8 95% 74 30.12 0.0 0.09 0.11
23 16:35 NW 6 10.00 Partly Cloudy SCT055 SCT070 SCT085 76.1 72.3 88% 76 30.11 0.0 0.09
23 16:15 N 6 2.50 Thunderstorm Light Rain in Vicinity Fog/Mist SCT031 BKN060 OVC085 75.2 73.4 94% 74 30.11 0.0 0.09
23 15:55 S 6 7.00 Rain BKN060 OVC075 77.5 72.5 85% 79 30.11 0.0
23 15:35 S 7 10.00 Thunderstorm in Vicinity SCT037 BKN070 OVC100 79 72.7 81% 82 30.11 0.0
23 15:15 S 6 10.00 Mostly Cloudy SCT033 SCT060 BKN070 80.8 72.9 77% 85 30.11 0.0
23 14:55 S 8 10.00 Mostly Cloudy BKN060 BKN100 83.3 71.6 68% 88 30.11 0.0
23 14:35 SE 6 10.00 Partly Cloudy SCT047 SCT050 SCT070 84.9 72.5 66% 91 30.11 0.0
23 14:15 SE 7 10.00 Partly Cloudy SCT042 SCT050 SCT060 87.3 74.3 65% 96 30.12 0.0
23 13:55 S 6 10.00 Mostly Cloudy SCT039 BKN048 BKN060 86.2 70.5 88 71.6 60% 91 30.13 0.0
23 13:35 W 3 10.00 Mostly Cloudy BKN037 BKN043 84.7 69.6 61% 89 30.14 0.0
23 13:15 W 6 10.00 Mostly Cloudy SCT031 BKN039 84.6 72 66% 90 30.15 0.0
23 12:55 W 6 10.00 Partly Cloudy SCT031 SCT044 SCT050 82.9 70.7 67% 87 30.15 0.0
23 12:35 Calm 10.00 Mostly Cloudy SCT042 SCT048 BKN060 82.9 70 65% 87 30.15 0.0
23 12:15 Calm 10.00 Mostly Cloudy SCT024 SCT036 BKN049 81.1 72 74% 86 30.16 0.0
23 11:55 SW 3 10.00 Partly Cloudy SCT020 SCT024 SCT038 80.6 72.5 76% 85 30.16 0.0
23 11:35 Calm 10.00 Partly Cloudy SCT017 SCT028 SCT070 79.5 70.9 75% 83 30.16 0.0
23 11:15 Calm 10.00 Mostly Cloudy SCT018 SCT024 BKN030 79.3 73.9 84% 83 30.17 0.0
23 10:55 Calm 10.00 Overcast BKN012 OVC021 77.2 72.1 85% 79 30.17 0.0
23 10:35 Calm 10.00 Overcast BKN012 OVC019 76.8 72.7 87% 78 30.17 0.0
23 10:15 Calm 10.00 Overcast OVC011 76.1 72.9 90% 76 30.16 0.0
23 09:55 Calm 10.00 Overcast SCT008 OVC013 76.3 73.4 91% 77 30.15 0.0
23 09:35 Calm 10.00 Overcast BKN008 OVC013 75.6 73.2 92% 75 30.15 0.0
23 09:15 Calm 10.00 Mostly Cloudy BKN006 75.2 73.2 94% 74 30.14 0.0
23 08:55 Calm 10.00 Partly Cloudy SCT004 74.7 73 95% 30.14 0.0
23 08:35 SE 3 10.00 Partly Cloudy SCT004 SCT029 74.8 72.3 92% 30.14 0.0
23 08:15 SE 3 10.00 Fair CLR 74.5 72.3 93% 30.13 0.0
23 07:55 Calm 5.00 Fog/Mist CLR 71.2 70.5 74.5 70.5 98% 30.13 0.0
23 07:35 Calm 10.00 Partly Cloudy SCT017 71.6 70.7 97% 30.13 0.0
23 07:15 Calm 10.00 Mostly Cloudy BKN017 72.1 71.1 96% 30.13 0.0
23 06:55 Calm 10.00 Mostly Cloudy BKN019 71.2 70.7 98% 30.13 0.0
23 06:35 Calm 10.00 Fair CLR 71.2 70.5 98% 30.13 0.0
23 06:15 Calm 10.00 Fair CLR 70.7 70.2 98% 30.12 0.0
23 05:55 Calm 1.25 Fog/Mist BKN005 BKN110 70.5 70 98% 30.12 0.0
23 05:35 Calm 1.50 Fog/Mist BKN005 BKN110 70.5 70 98% 30.11 0.0
23 05:15 Calm 10.00 Fair CLR 71.8 70.7 96% 30.1 0.0
23 04:55 Calm 10.00 Partly Cloudy SCT060 71.1 70.3 98% 30.1 0.0
23 04:35 Calm 10.00 Partly Cloudy SCT024 SCT045 SCT060 71.8 70.9 97% 30.1 0.0
23 04:15 Calm 10.00 Partly Cloudy SCT045 71.8 71.1 98% 30.09 0.0
23 03:55 Calm 10.00 Thunderstorm in Vicinity SCT049 SCT070 72.1 71.1 96% 30.09 0.0
23 03:35 Calm 10.00 Mostly Cloudy SCT013 SCT038 BKN049 72 71.1 97% 30.09 0.0
23 03:15 Calm 10.00 Thunderstorm BKN013 BKN038 BKN044 72.5 71.2 96% 30.09 0.0
23 02:55 Calm 10.00 Thunderstorm in Vicinity SCT038 SCT060 73 71.2 94% 30.1 0.0
23 02:35 Calm 10.00 Thunderstorm in Vicinity SCT023 BKN039 BKN045 73.2 71.2 94% 30.1 0.0
23 02:15 SW 3 10.00 Thunderstorm in Vicinity SCT021 SCT026 BKN045 73 71.4 95% 30.1 0.0
23 01:55 Calm 10.00 Mostly Cloudy SCT027 BKN038 BKN048 73.6 71.4 79.5 72.3 93% 30.1 0.0
23 01:35 SW 5 10.00 Overcast BKN026 BKN036 OVC049 73.9 71.6 92% 30.1 0.0
23 01:15 SW 5 10.00 Light Rain SCT023 BKN029 BKN036 73 71.6 95% 30.1 0.0
23 00:55 Calm 10.00 Thunderstorm SCT025 SCT029 BKN041 73.2 70.9 92% 30.1 0.0
23 00:35 Calm 10.00 Overcast BKN025 BKN030 OVC050 72.7 71.6 96% 30.1 0.0
23 00:15 SE 3 10.00 Mostly Cloudy SCT027 SCT033 BKN039 72.3 71.4 97% 30.1 0.0
22 23:55 Calm 10.00 Overcast OVC036 72.9 71.2 95% 30.1 0.0
22 23:35 Calm 10.00 Mostly Cloudy SCT029 BKN040 BKN070 74.3 71.2 90% 30.1 0.0
22 23:15 Calm 10.00 Partly Cloudy SCT070 73.4 71.4 94% 30.09 0.0
22 22:55 Calm 10.00 Fair CLR 73.8 71.8 94% 30.09 0.0
22 22:35 Calm 10.00 Fair CLR 74.1 71.6 92% 30.09 0.0
22 22:15 N 5 10.00 Fair CLR 75.2 72 90% 75 30.08 0.0
22 21:55 N 5 10.00 Fair CLR 75.6 72.1 89% 75 30.08 0.0
22 21:35 NW 3 10.00 Fair CLR 75.7 72.3 89% 76 30.07 0.0
22 21:15 Calm 10.00 Partly Cloudy SCT035 SCT075 75.9 70.9 84% 76 30.07 0.0
22 20:55 SE 3 10.00 Partly Cloudy SCT035 SCT070 75.6 72.1 89% 75 30.06 0.0
22 20:35 Calm 10.00 Partly Cloudy SCT070 77.5 71.2 81% 79 30.06 0.0
22 20:15 Calm 10.00 Fair CLR 78.1 72.3 83% 81 30.05 0.0
22 19:55 Calm 10.00 Fair CLR 79.5 70.7 85.8 78.8 75% 83 30.05 0.0
22 19:35 N 3 10.00 Fair CLR 79.5 71.4 76% 83 30.04 0.0
22 19:15 NW 5 10.00 Fair CLR 79.7 71.4 76% 83 30.03 0.0
22 18:55 W 9 10.00 Partly Cloudy SCT043 SCT055 SCT085 80.6 71.2 73% 84 30.03 0.0
22 18:35 W 10 10.00 Mostly Cloudy SCT038 SCT045 BKN055 82.2 71.4 70% 87 30.03 0.0
22 18:15 W 6 10.00 Mostly Cloudy SCT038 SCT045 BKN050 80.6 70.5 71% 84 30.03 0.0
22 17:55 SW 6 10.00 Partly Cloudy SCT040 SCT050 SCT065 82 70.3 68% 86 30.03 0.0
22 17:35 S 3 10.00 Partly Cloudy SCT038 SCT044 SCT100 83.3 70.7 66% 88 30.03 0.0
22 17:15 SW 5 10.00 Partly Cloudy SCT050 SCT065 SCT100 81.7 70 68% 85 30.04 0.0
22 16:55 S 6 10.00 Mostly Cloudy SCT040 SCT048 BKN050 82.4 70.5 67% 87 30.04 0.0
22 16:35 S 6 10.00 Partly Cloudy SCT043 SCT055 82.6 69.8 65% 86 30.04 0.0
22 16:15 SW 5 10.00 Mostly Cloudy SCT035 SCT043 BKN060 83.3 71.4 68% 88 30.04 0.0
22 15:55 S 6 10.00 Overcast SCT035 BKN049 OVC070 81.5 70.9 70% 86 30.05 0.0
22 15:35 S 6 10.00 Mostly Cloudy SCT035 SCT042 BKN049 82.4 70 66% 86 30.06 0.0
22 15:15 SW 6 10.00 Partly Cloudy SCT035 84.2 69.4 61% 88 30.07 0.0
22 14:55 W 6 10.00 Partly Cloudy SCT033 SCT039 84.2 70.9 64% 89 30.08 0.0
22 14:35 Calm 7.00 Mostly Cloudy with Haze BKN033 BKN039 BKN110 82 70.3 68% 86 30.08 0.0
22 14:15 SW 10 10.00 Partly Cloudy SCT030 SCT037 SCT110 83.1 70.2 65% 87 30.09 0.0
22 13:55 SW 7 10.00 Mostly Cloudy SCT030 BKN037 81.7 70 84.4 71.6 68% 85 30.09 0.0
22 13:35 W 6 10.00 Mostly Cloudy BKN028 BKN035 83.1 71.8 69% 88 30.1 0.0
22 13:15 S 6 10.00 Mostly Cloudy BKN028 BKN035 81.1 70.3 70% 85 30.11 0.0
22 12:55 S 7 10.00 Mostly Cloudy SCT023 SCT029 BKN035 80.8 70.9 72% 85 30.11 0.0
22 12:35 W 5 10.00 Overcast BKN023 OVC031 80.2 70 71% 83 30.11 0.0
22 12:15 W 10 10.00 Overcast SCT022 OVC029 79.3 69.6 72% 82 30.12 0.0
22 11:55 SW 7 10.00 Mostly Cloudy SCT021 BKN029 78.8 69.8 74% 81 30.12 0.0
22 11:35 SW 6 10.00 Mostly Cloudy SCT021 BKN027 79.2 71.4 77% 82 30.12 0.0
22 11:15 W 7 10.00 Mostly Cloudy BKN021 78.3 69.3 74% 81 30.12 0.0
22 10:55 Calm 10.00 Partly Cloudy SCT019 78.1 69.6 75% 80 30.11 0.0
22 10:35 W 8 10.00 Mostly Cloudy BKN019 77 69.6 78% 79 30.11 0.0
22 10:15 NW 5 10.00 Mostly Cloudy BKN019 BKN024 76.3 68.5 77% 78 30.11 0.0
22 09:55 W 7 10.00 Mostly Cloudy SCT011 BKN017 BKN023 76.5 68.7 77% 78 30.11 0.0
22 09:35 W 5 10.00 Overcast BKN009 BKN015 OVC020 75 70.2 85% 75 30.11 0.0
22 09:15 Calm 10.00 Overcast BKN009 OVC014 74.5 70.9 89% 30.1 0.0
22 08:55 Calm 10.00 Overcast OVC005 73.2 71.1 93% 30.11 0.0
22 08:35 SW 3 10.00 Overcast OVC005 72.5 70.5 94% 30.1 0.0
22 08:15 SW 3 10.00 Overcast BKN005 OVC047 72.3 70.9 95% 30.1 0.0
22 07:55 Calm 10.00 Overcast SCT005 SCT036 OVC060 71.6 70.9 72 69.8 98% 30.09 0.0
22 07:35 Calm 10.00 Overcast SCT007 BKN043 OVC060 70.7 70.2 98% 30.08 0.0
22 07:15 Calm 10.00 Overcast BKN007 OVC045 70.2 69.4 98% 30.08 0.0
22 06:55 Calm 10.00 Overcast OVC007 70.3 69.4 97% 30.08 0.0
22 06:35 Calm 10.00 Overcast OVC007 70.9 69.8 96% 30.08 0.0
22 06:15 Calm 10.00 Overcast OVC007 70.3 69.6 98% 30.08 0.0
22 05:55 Calm 10.00 Overcast OVC009 70.3 69.8 98% 30.07 0.0
22 05:35 Calm 10.00 Overcast OVC009 70 69.4 98% 30.07 0.0
22 05:15 S 3 10.00 Overcast BKN009 OVC032 70 69.3 98% 30.06 0.0
22 04:55 Calm 10.00 Mostly Cloudy BKN009 70.2 69.1 96% 30.06 0.0
22 04:35 Calm 10.00 Mostly Cloudy BKN009 70.5 69.4 96% 30.06 0.0
22 04:15 Calm 10.00 Overcast OVC009 70.9 69.6 96% 30.06 0.0
22 03:55 Calm 10.00 Overcast OVC011 70.7 69.4 96% 30.07 0.0
22 03:35 SW 3 10.00 Overcast OVC011 70.9 69.4 95% 30.07 0.0
22 03:15 Calm 10.00 Mostly Cloudy BKN011 70.9 69.4 95% 30.08 0.0
22 02:55 Calm 10.00 Partly Cloudy SCT050 SCT070 SCT120 70.7 69.4 96% 30.08 0.0
22 02:35 S 3 10.00 Partly Cloudy SCT050 SCT070 70.5 69.4 96% 30.09 0.0
22 02:15 S 3 10.00 Partly Cloudy SCT070 70.7 69.4 96% 30.1 0.0
22 01:55 S 5 10.00 Partly Cloudy SCT050 SCT090 71.1 69.6 78.8 71.1 95% 30.1 0.0
22 01:35 S 5 10.00 Mostly Cloudy SCT040 SCT050 BKN100 71.6 69.4 93% 30.1 0.0
22 01:15 Calm 10.00 Partly Cloudy SCT040 SCT100 71.6 70 95% 30.1 0.0
22 00:55 SE 3 7.00 Fog/Mist CLR 72 70.3 95% 30.1 0.0
22 00:35 SE 3 10.00 Partly Cloudy SCT039 SCT048 SCT100 72.3 70.5 94% 30.1 0.0
22 00:15 SE 3 10.00 Overcast BKN037 BKN048 OVC100 72.7 70.7 94% 30.11 0.0
21 23:55 S 3 10.00 Mostly Cloudy SCT035 BKN100 72.9 70.7 93% 30.11 0.0
21 23:35 SE 3 10.00 Overcast OVC100 73.4 71.2 93% 30.11 0.0
21 23:15 S 5 10.00 Overcast SCT013 SCT020 OVC090 73.8 71.8 94% 30.11 0.0
21 22:55 S 5 7.00 Overcast OVC013 73.9 72 94% 30.11 0.0
21 22:35 SE 3 10.00 Mostly Cloudy SCT011 BKN100 73.9 72.1 94% 30.1 0.0
21 22:15 S 5 10.00 Partly Cloudy SCT100 74.1 72.3 94% 30.1 0.0
21 21:55 S 5 10.00 Partly Cloudy SCT100 74.7 72.1 92% 30.09 0.0
21 21:35 S 5 10.00 Partly Cloudy SCT020 SCT026 SCT030 75.2 72.7 92% 74 30.09 0.0
21 21:15 S 5 10.00 Mostly Cloudy SCT013 BKN022 BKN110 75.7 72.9 91% 75 30.08 0.0
21 20:55 S 5 10.00 Overcast BKN021 OVC110 76.3 72.9 89% 77 30.06 0.0
21 20:35 S 7 10.00 Overcast BKN021 OVC031 77.4 72.9 86% 79 30.06 0.0
21 20:15 S 5 10.00 Mostly Cloudy SCT025 SCT031 BKN100 78.1 73.2 85% 81 30.07 0.0
21 19:55 S 5 10.00 Overcast SCT031 SCT038 OVC100 78.8 73.4 85.3 78.6 84% 82 30.06 0.0
21 19:35 S 6 10.00 Overcast SCT026 SCT043 OVC100 79.7 73 80% 84 30.05 0.0
21 19:15 SW 6 10.00 Overcast SCT034 BKN047 OVC100 80.2 73 79% 85 30.05 0.0
21 18:55 SW 3 10.00 Mostly Cloudy BKN035 BKN045 BKN100 80.8 73.6 79% 86 30.05 0.0
21 18:35 SW 5 10.00 Mostly Cloudy BKN035 BKN046 83.1 73.4 73% 89 30.04 0.0
21 18:15 S 3 10.00 Partly Cloudy SCT035 81.5 73.8 77% 87 30.04 0.0
21 17:55 Calm 10.00 Fair CLR 80.4 73 78% 85 30.04 0.0
21 17:35 Calm 10.00 Fair CLR 80.6 72 75% 85 30.04 0.0
21 17:15 SW 3 10.00 Fair CLR 81.1 72.3 75% 86 30.03 0.0
21 16:55 Calm 10.00 Fair CLR 81.3 72.7 75% 86 30.04 0.0
21 16:35 SW 3 10.00 Fair CLR 81.3 72.1 74% 86 30.04 0.0
21 16:15 SW 3 10.00 Fair CLR 82 72.5 73% 87 30.04 0.0
21 15:55 Calm 10.00 Fair CLR 82.6 74.1 76% 89 30.05 0.0
21 15:35 Calm 10.00 Partly Cloudy SCT031 SCT035 SCT055 82.2 72.9 73% 88 30.06 0.0
21 15:15 SE 3 10.00 Mostly Cloudy BKN030 BKN036 81.7 72.9 75% 87 30.07 0.0
21 14:55 S 7 10.00 Partly Cloudy SCT027 SCT085 82.8 72.5 71% 88 30.07 0.0
21 14:35 S 6 10.00 Partly Cloudy SCT085 83.5 74.5 74% 91 30.07 0.0
21 14:15 NW 3 10.00 Fair CLR 82.4 73.6 75% 88 30.08 0.0
21 13:55 S 3 10.00 Partly Cloudy SCT020 82 74.5 82.9 72.5 78% 88 30.09 0.0
21 13:35 S 5 10.00 Mostly Cloudy SCT014 BKN020 80.1 74.8 84% 85 30.1 0.0
21 13:15 Calm 10.00 Mostly Cloudy BKN016 81 75 82% 87 30.11 0.0
21 12:55 SW 3 10.00 Partly Cloudy SCT014 SCT020 79.2 74.1 85% 83 30.11 0.0
21 12:35 W 5 10.00 Partly Cloudy SCT010 SCT014 78.4 73.2 84% 81 30.12 0.0
21 12:15 Calm 10.00 Partly Cloudy SCT010 SCT014 78.1 74.3 88% 81 30.12 0.0
21 11:55 S 5 10.00 Partly Cloudy SCT012 SCT031 SCT037 78.4 74.1 87% 81 30.12 0.0
21 11:35 S 3 10.00 Mostly Cloudy SCT014 SCT024 BKN036 77.2 73 87% 79 30.12 0.0
21 11:15 W 7 10.00 Mostly Cloudy SCT014 BKN022 BKN070 76.5 72.5 88% 77 30.12 0.0
21 10:55 W 5 10.00 Partly Cloudy SCT010 SCT018 SCT070 76.1 73 90% 76 30.11 0.0
Date Time (edt) Wind (mph) Vis. (mi.) Weather Sky Cond. Air Dwpt Max. Min. Relative Humidity Wind Chill (°F) Heat Index (°F) altimeter (in) sea level (mb) 1 hr 3 hr 6 hr
6 hour
Temperature (ºF) Pressure Precipitation (in)